Date String (YYYY-MM-DD hh:mm:ss) UTC,Instrument flags,Ambient pressure (hPa),Sample flow (lpm),Bypass flow (lpm),Sample temperature (°C),Ambient temperature (°C),ASC tube jacket temperature (°C),LED temperature (°C),Box temperature (°C),Sample RH (%),Span deviation,Mass concentration (μg/m³),Mass concentration (μg/m³),Mass concentration (μg/m³)
DateTimeUTC,F1_M11,P_M11,Q1_M11,Q2_M11,T1_M11,T2_M11,T3_M11,T4_M11,T5_M11,U1_M11,ZSPAN_M11,X0_M11,X2_M11,X1_M11
2022-03-13 03:00:00,,0824.8,5.01,0.00,23.1,22.2,00.0,32.1,24.7,10.0,0000.0,0001.48,0000.95,0000.74
2022-03-13 03:01:00,,0824.8,5.01,0.00,23.1,22.2,00.0,32.1,24.8,09.9,0000.0,0001.36,0000.92,0000.73
2022-03-13 03:02:00,,0824.8,5.00,0.00,23.1,22.2,00.0,32.1,24.7,10.1,0000.0,0001.34,0000.92,0000.73
2022-03-13 03:03:00,,0824.8,4.99,0.00,23.1,22.2,00.0,32.1,24.7,10.2,0000.0,0001.39,0000.94,0000.73
2022-03-13 03:04:00,,0824.8,5.01,0.00,23.1,22.2,00.0,32.1,24.7,10.0,0000.0,0001.43,0000.94,0000.73
2022-03-13 03:05:00,,0824.8,5.00,0.00,23.0,22.2,00.0,32.1,24.7,09.8,0000.0,0001.40,0000.94,0000.72
2022-03-13 03:06:00,,0824.8,5.00,0.00,23.0,22.2,00.0,32.1,24.7,09.9,0000.0,0001.49,0000.97,0000.72
2022-03-13 03:07:00,,0824.7,5.00,0.00,23.0,22.2,00.0,32.1,24.6,09.9,0000.0,0001.56,0000.99,0000.73
2022-03-13 03:08:00,,0824.8,5.02,0.00,23.0,22.2,00.0,32.1,24.6,09.9,0000.0,0001.57,0001.00,0000.74
2022-03-13 03:09:00,,0824.8,4.99,0.00,23.0,22.2,00.0,32.1,24.6,10.0,0000.0,0001.86,0000.98,0000.74
2022-03-13 03:10:00,,0824.8,5.00,0.00,23.0,22.1,00.0,32.1,24.7,10.1,0000.0,0003.10,0000.98,0000.74
2022-03-13 03:11:00,,0824.8,5.00,0.00,23.0,22.1,00.0,32.1,24.7,09.9,0000.0,0003.49,0000.96,0000.74
2022-03-13 03:12:00,,0824.8,5.00,0.00,23.0,22.1,00.0,32.1,24.7,09.9,0000.0,0003.54,0000.99,0000.74
2022-03-13 03:13:00,,0824.8,4.99,0.00,23.0,22.2,00.0,32.1,24.7,09.9,0000.0,0003.59,0001.01,0000.74
2022-03-13 03:14:00,,0824.7,5.02,0.00,23.0,22.1,00.0,32.1,24.6,09.9,0000.0,0003.57,0000.99,0000.73
2022-03-13 03:15:00,,0824.8,4.99,0.00,23.0,22.1,00.0,32.1,24.7,09.9,0000.0,0003.56,0001.00,0000.73
2022-03-13 03:16:00,,0824.7,4.99,0.00,23.0,22.1,00.0,32.0,24.7,09.9,0000.0,0003.62,0001.04,0000.74
2022-03-13 03:17:00,,0824.7,5.01,0.00,23.0,22.1,00.0,32.0,24.6,09.9,0000.0,0003.55,0001.01,0000.74
2022-03-13 03:18:00,,0824.6,5.00,0.00,23.0,22.1,00.0,32.1,24.7,10.0,0000.0,0003.53,0000.99,0000.74
2022-03-13 03:19:00,,0824.7,4.99,0.00,23.0,22.1,00.0,32.0,24.7,10.0,0000.0,0003.46,0000.97,0000.72
2022-03-13 03:20:00,,0824.6,5.02,0.00,23.0,22.1,00.0,32.0,24.7,10.0,0000.0,0003.24,0000.99,0000.73
2022-03-13 03:21:00,,0824.6,4.99,0.00,23.0,22.2,00.0,32.0,24.7,10.0,0000.0,0001.93,0000.98,0000.72
2022-03-13 03:22:00,,0824.6,5.00,0.00,23.0,22.1,00.0,32.0,24.7,09.9,0000.0,0001.42,0000.98,0000.72
2022-03-13 03:23:00,,0824.6,4.99,0.00,23.0,22.1,00.0,32.0,24.7,09.8,0000.0,0001.45,0000.98,0000.72
2022-03-13 03:24:00,,0824.6,5.00,0.00,23.0,22.1,00.0,32.0,24.7,09.9,0000.0,0001.52,0001.00,0000.73
2022-03-13 03:25:00,,0824.6,5.01,0.00,23.0,22.1,00.0,32.0,24.7,10.0,0000.0,0001.48,0000.98,0000.73
2022-03-13 03:26:00,,0824.6,4.99,0.00,23.0,22.1,00.0,32.0,24.7,10.1,0000.0,0001.46,0000.97,0000.72
2022-03-13 03:27:00,,0824.7,5.00,0.00,23.0,22.2,00.0,32.0,24.7,10.1,0000.0,0001.39,0000.93,0000.72
2022-03-13 03:28:00,,0824.7,4.99,0.00,23.0,22.1,00.0,32.0,24.7,10.1,0000.0,0001.54,0000.98,0000.73
2022-03-13 03:29:00,,0824.6,5.02,0.00,23.0,22.1,00.0,32.0,24.7,10.1,0000.0,0001.54,0000.98,0000.72
2022-03-13 03:30:00,,0824.7,5.00,0.00,23.0,22.1,00.0,32.0,24.7,10.2,0000.0,0001.63,0000.98,0000.72
2022-03-13 03:31:00,,0824.6,4.99,0.00,23.0,22.1,00.0,32.0,24.7,10.2,0000.0,0001.72,0000.99,0000.72
2022-03-13 03:32:00,,0824.7,5.00,0.00,23.0,22.1,00.0,32.0,24.7,10.0,0000.0,0001.73,0000.99,0000.71
2022-03-13 03:33:00,,0824.7,5.01,0.00,23.0,22.1,00.0,32.0,24.7,10.1,0000.0,0001.74,0001.00,0000.73
2022-03-13 03:34:00,,0824.7,4.99,0.00,23.0,22.1,00.0,32.0,24.7,10.2,0000.0,0002.00,0001.02,0000.74
2022-03-13 03:35:00,,0824.6,4.99,0.00,23.0,22.2,00.0,32.0,24.7,10.2,0000.0,0002.63,0001.02,0000.73
2022-03-13 03:36:00,,0824.6,5.00,0.00,23.0,22.1,00.0,32.0,24.7,10.1,0000.0,0002.65,0001.04,0000.74
2022-03-13 03:37:00,,0824.6,5.02,0.00,23.0,22.2,00.0,32.0,24.7,10.0,0000.0,0002.70,0001.07,0000.75
2022-03-13 03:38:00,,0824.8,4.99,0.00,23.0,22.2,00.0,32.0,24.7,09.9,0000.0,0003.56,0001.09,0000.75
2022-03-13 03:39:00,,0824.7,5.01,0.00,23.0,22.2,00.0,32.0,24.7,09.9,0000.0,0003.55,0001.07,0000.75
2022-03-13 03:40:00,,0824.7,5.00,0.00,23.0,22.2,00.0,32.0,24.7,09.9,0000.0,0003.51,0001.07,0000.75
2022-03-13 03:41:00,,0824.6,4.99,0.00,23.0,22.2,00.0,32.0,24.7,10.0,0000.0,0003.53,0001.09,0000.75
2022-03-13 03:42:00,,0824.6,5.02,0.00,23.0,22.2,00.0,32.0,24.7,09.9,0000.0,0003.49,0001.09,0000.76
2022-03-13 03:43:00,,0824.6,4.99,0.00,23.0,22.2,00.0,32.0,24.7,09.9,0000.0,0003.43,0001.08,0000.76
2022-03-13 03:44:00,,0824.7,4.99,0.00,23.0,22.2,00.0,32.0,24.7,09.9,0000.0,0003.72,0001.11,0000.75
2022-03-13 03:45:00,,0824.7,5.02,0.00,23.0,22.2,00.0,32.0,24.7,09.9,0000.0,0003.50,0001.09,0000.73
2022-03-13 03:46:00,,0824.6,5.00,0.00,23.0,22.2,00.0,32.0,24.7,09.9,0000.0,0002.93,0001.07,0000.72
2022-03-13 03:47:00,,0824.7,4.99,0.00,23.0,22.2,00.0,32.0,24.8,09.8,0000.0,0003.09,0001.09,0000.71
2022-03-13 03:48:00,,0824.7,4.99,0.00,23.0,22.2,00.0,32.0,24.8,09.8,0000.0,0003.11,0001.07,0000.70
2022-03-13 03:49:00,,0824.8,4.99,0.00,23.0,22.2,00.0,32.0,24.8,09.8,0000.0,0002.37,0001.07,0000.70
2022-03-13 03:50:00,,0824.8,5.00,0.00,23.0,22.2,00.0,32.0,24.7,09.8,0000.0,0002.36,0001.07,0000.70
2022-03-13 03:51:00,,0824.6,4.99,0.00,22.9,22.2,00.0,32.0,24.7,09.7,0000.0,0002.33,0001.05,0000.69
2022-03-13 03:52:00,,0824.8,5.02,0.00,22.9,22.1,00.0,32.0,24.7,09.7,0000.0,0002.37,0001.08,0000.70
2022-03-13 03:53:00,,0824.6,4.99,0.00,22.9,22.1,00.0,32.0,24.7,09.7,0000.0,0002.37,0001.07,0000.70
2022-03-13 03:54:00,,0824.6,4.99,0.00,22.9,22.2,00.0,32.0,24.7,09.6,0000.0,0002.40,0001.08,0000.70
2022-03-13 03:55:00,,0824.7,5.00,0.00,22.9,22.2,00.0,32.0,24.7,09.5,0000.0,0002.27,0001.07,0000.70
2022-03-13 03:56:00,,0824.6,5.01,0.00,22.9,22.1,00.0,32.0,24.6,09.5,0000.0,0002.13,0001.06,0000.70
2022-03-13 03:57:00,,0824.6,5.01,0.00,22.9,22.1,00.0,32.0,24.6,09.5,0000.0,0002.13,0001.09,0000.70
2022-03-13 03:58:00,,0824.6,5.00,0.00,22.9,22.1,00.0,32.0,24.6,09.6,0000.0,0001.93,0001.05,0000.70
2022-03-13 03:59:00,,0824.6,4.99,0.00,22.9,22.1,00.0,31.9,24.6,09.6,0000.0,0001.92,0001.05,0000.70
